Santa Monica, CA

11:05 PM PST on November 23, 2017 (GMT -0800)
Santa Monica Municipal

Weather History for KSMO - September, 2017

Change the Weather History Date:

Wednesday, September 13, 2017

  Actual Average Record
Temperature  
Mean Temperature 68 °F -  
Max Temperature 73 °F 78 °F 92 °F (1971)
Min Temperature 64 °F 62 °F 53 °F (1949)
Cooling Degree Days 2    
Growing Degree Days 18 (Base 50)    
Moisture  
Dew Point 62 °F    
Average Humidity 83    
Maximum Humidity 93    
Minimum Humidity 70    
Precipitation  
Precipitation 0.00 in - - ()
Sea Level Pressure  
Sea Level Pressure 29.89 in    
Wind  
Wind Speed 5 mph (SW)    
Max Wind Speed 15 mph    
Max Gust Speed 21 mph    
Visibility 10 miles    
Events      
Averages and records for this station are not official NWS values.
T = Trace of Precipitation, MM = Missing Value Source: NWS Daily Summary

Daily Weather History Graph

Daily Weather History Graph

Search for Another Location

Airport or City:

Trip Planner

Search our weather history database for the weather conditions in past years. The results will help you decide how hot, cold, wet, or windy it might be!

Date:

Astronomy

Sep. 13, 2017 Rise Set
Actual Time 6:35 AM PDT 7:02 PM PDT
Civil Twilight 6:10 AM PDT 7:27 PM PDT
Nautical Twilight 5:41 AM PDT 7:57 PM PDT
Astronomical Twilight 5:11 AM PDT 8:27 PM PDT
Moon No Moon Rise 2:12 PM PDT (9/13)
Length of Visible Light 13h 16m
Length of Day
12h 26m
Last Quarter, 44% of the Moon is Illuminated
Sep 13
Last Quarter
Sep 19
New
Sep 27
First Quarter
Oct 5
Full
Oct 12
Last Quarter

Hourly Weather History & Observations

Time (PDT) Temp. Dew Point Humidity Pressure Visibility Wind Dir Wind Speed Gust Speed Precip Events Conditions
12:51 AM 66.0 °F 63.0 °F 90% 29.89 in 10.0 mi East 4.6 mph - N/A   Clear
1:01 AM 64.9 °F 63.0 °F 93% 29.90 in 10.0 mi East 4.6 mph - N/A   Partly Cloudy
1:51 AM 66.0 °F 63.0 °F 90% 29.89 in 10.0 mi NE 5.8 mph - N/A   Partly Cloudy
2:08 AM 66.0 °F 63.0 °F 90% 29.89 in 10.0 mi NE 3.5 mph - N/A   Mostly Cloudy
2:51 AM 66.0 °F 63.0 °F 90% 29.88 in 10.0 mi NNE 3.5 mph - N/A   Mostly Cloudy
3:51 AM 66.0 °F 64.0 °F 93% 29.88 in 10.0 mi Calm Calm - N/A   Overcast
4:08 AM 66.0 °F 64.0 °F 93% 29.89 in 10.0 mi Calm Calm - N/A   Overcast
4:51 AM 66.9 °F 63.0 °F 87% 29.89 in 10.0 mi Calm Calm - N/A   Overcast
5:51 AM 66.9 °F 63.0 °F 87% 29.90 in 10.0 mi Calm Calm - N/A   Overcast
6:51 AM 66.0 °F 63.0 °F 90% 29.91 in 10.0 mi South 3.5 mph - N/A   Overcast
7:13 AM 66.0 °F 63.0 °F 90% 29.92 in 9.0 mi South 3.5 mph - N/A   Overcast
7:51 AM 66.0 °F 63.0 °F 90% 29.92 in 10.0 mi Variable 3.5 mph - N/A   Overcast
8:09 AM 66.9 °F 63.0 °F 87% 29.92 in 10.0 mi SSW 4.6 mph - N/A   Overcast
8:21 AM 66.9 °F 63.0 °F 87% 29.93 in 10.0 mi SW 4.6 mph - N/A   Overcast
8:51 AM 66.9 °F 63.0 °F 87% 29.93 in 10.0 mi SSW 3.5 mph - N/A   Overcast
9:51 AM 66.9 °F 63.0 °F 87% 29.93 in 10.0 mi South 4.6 mph - N/A   Overcast
10:09 AM 68.0 °F 63.0 °F 84% 29.93 in 10.0 mi SSW 3.5 mph - N/A   Overcast
10:47 AM 69.8 °F 62.6 °F 78% 29.93 in 9.0 mi SW 8.1 mph - N/A   Overcast
10:51 AM 69.1 °F 63.0 °F 81% 29.92 in 9.0 mi SW 8.1 mph - N/A   Overcast
11:49 AM 69.8 °F 60.8 °F 73% 29.92 in 10.0 mi SW 8.1 mph - N/A   Overcast
11:51 AM 70.0 °F 61.0 °F 73% 29.92 in 10.0 mi WSW 6.9 mph - N/A   Overcast
12:11 PM 71.1 °F 61.0 °F 70% 29.92 in 10.0 mi WSW 6.9 mph - N/A   Mostly Cloudy
12:51 PM 71.1 °F 61.0 °F 70% 29.90 in 10.0 mi SW 9.2 mph - N/A   Clear
1:51 PM 70.0 °F 61.0 °F 73% 29.88 in 10.0 mi SW 11.5 mph 18.4 mph N/A   Clear
2:51 PM 71.1 °F 61.0 °F 70% 29.86 in 10.0 mi WSW 12.7 mph 18.4 mph N/A   Clear
3:51 PM 70.0 °F 61.0 °F 73% 29.85 in 10.0 mi WSW 12.7 mph - N/A   Clear
4:51 PM 70.0 °F 62.1 °F 76% 29.84 in 10.0 mi SW 15.0 mph 20.7 mph N/A   Clear
5:51 PM 69.1 °F 62.1 °F 78% 29.84 in 10.0 mi SW 12.7 mph 19.6 mph N/A   Partly Cloudy
6:51 PM 66.9 °F 62.1 °F 84% 29.84 in 10.0 mi WSW 10.4 mph - N/A   Clear
7:51 PM 66.0 °F 61.0 °F 84% 29.85 in 10.0 mi SW 9.2 mph - N/A   Clear
8:51 PM 66.9 °F 61.0 °F 81% 29.86 in 10.0 mi Calm Calm - N/A   Clear
9:51 PM 66.0 °F 61.0 °F 84% 29.88 in 10.0 mi WSW 4.6 mph - N/A   Clear
10:51 PM 66.0 °F 61.0 °F 84% 29.89 in 10.0 mi Calm Calm - N/A   Clear
11:51 PM 64.9 °F 61.0 °F 87% 29.90 in 10.0 mi Calm Calm - N/A   Scattered Clouds